owner,sensor,date,latitude,longitude,vertical_datum,wind_speed,wind_to_direction,wind_speed_of_gust,qcFlag 
TABS,ioos:station:wmo:42043:1,2019-12-01T05:00:00Z,28.9818,-94.9186,4.0,2.86,230.2,3.26,'11111222,11111222,11111222' 
TABS,ioos:station:wmo:42043:1,2019-12-01T06:00:00Z,28.9818,-94.9186,4.0,2.01,288.6,2.57,'11111222,11111222,11111222' 
TABS,ioos:station:wmo:42043:1,2019-12-01T07:00:00Z,28.9818,-94.9186,4.0,8.12,4.1,10.35,'11111222,11111222,11111222' 
TABS,ioos:station:wmo:42043:1,2019-12-01T08:00:00Z,28.9818,-94.9186,4.0,7.05,354.0,8.75,'11111222,11111222,11111222' 
TABS,ioos:station:wmo:42043:1,2019-12-01T09:00:00Z,28.9818,-94.9186,4.0,8.06,359.7,10.0,'11111222,11144222,11111222' 
TABS,ioos:station:wmo:42043:1,2019-12-01T10:00:00Z,28.9818,-94.9186,4.0,7.59,351.5,9.36,'11111222,11111222,11111222' 
TABS,ioos:station:wmo:42043:1,2019-12-01T11:00:00Z,28.9818,-94.9186,4.0,8.52,345.9,9.89,'11111222,11111222,11111222' 
TABS,ioos:station:wmo:42043:1,2019-12-01T12:00:00Z,28.9818,-94.9186,4.0,7.89,353.5,10.2,'11111222,11111222,11111222' 
TABS,ioos:station:wmo:42043:1,2019-12-01T13:00:00Z,28.9818,-94.9186,4.0,8.34,351.4,10.17,'11111222,11111222,11111222' 
TABS,ioos:station:wmo:42043:1,2019-12-01T14:00:00Z,28.9818,-94.9186,4.0,9.02,348.5,10.71,'11111222,11111222,11111222' 
TABS,ioos:station:wmo:42043:1,2019-12-01T15:00:00Z,28.9818,-94.9186,4.0,7.78,346.5,9.94,'11111222,11111222,11111222' 
TABS,ioos:station:wmo:42043:1,2019-12-01T16:00:00Z,28.9818,-94.9186,4.0,8.35,354.7,10.28,'11111222,11111222,11111222' 
TABS,ioos:station:wmo:42043:1,2019-12-01T17:00:00Z,28.9818,-94.9186,4.0,8.91,6.4,10.86,'11111222,11111222,11111222' 
TABS,ioos:station:wmo:42043:1,2019-12-01T18:00:00Z,28.9818,-94.9186,4.0,7.69,356.7,9.38,'11111222,11111222,11111222' 
TABS,ioos:station:wmo:42043:1,2019-12-01T19:00:00Z,28.9818,-94.9186,4.0,6.34,343.6,8.05,'11111222,11111222,11111222' 
TABS,ioos:station:wmo:42043:1,2019-12-01T20:00:00Z,28.9818,-94.9186,4.0,6.27,345.5,8.09,'11111222,11111222,11111222' 
TABS,ioos:station:wmo:42043:1,2019-12-01T21:00:00Z,28.9818,-94.9186,4.0,6.64,335.2,8.22,'11111222,11111222,11111222' 
TABS,ioos:station:wmo:42043:1,2019-12-01T22:00:00Z,28.9818,-94.9186,4.0,6.65,339.8,8.23,'11111222,11111222,11111222' 
TABS,ioos:station:wmo:42043:1,2019-12-01T23:00:00Z,28.9818,-94.9186,4.0,6.72,331.6,8.09,'11111222,11111222,11111222' 
TABS,ioos:station:wmo:42043:1,2019-12-01T23:30:00Z,28.9818,-94.9186,4.0,7.44,330.4,8.7,'11111222,11111222,11111222' 
TABS,ioos:station:wmo:42043:1,2019-12-02T05:00:00Z,28.9818,-94.9186,4.0,9.52,336.1,11.31,'11111222,11111222,11111222' 
TABS,ioos:station:wmo:42043:1,2019-12-02T06:00:00Z,28.9818,-94.9186,4.0,8.98,343.3,10.61,'11111222,11111222,11111222' 
TABS,ioos:station:wmo:42043:1,2019-12-02T07:00:00Z,28.9818,-94.9186,4.0,8.77,343.7,10.18,'11111222,11111222,11111222' 
TABS,ioos:station:wmo:42043:1,2019-12-02T08:00:00Z,28.9818,-94.9186,4.0,9.02,345.3,10.52,'11111222,11111222,11111222' 
TABS,ioos:station:wmo:42043:1,2019-12-02T09:00:00Z,28.9818,-94.9186,4.0,9.12,344.8,11.03,'11111222,11111222,11111222' 
TABS,ioos:station:wmo:42043:1,2019-12-02T10:00:00Z,28.9818,-94.9186,4.0,8.43,349.6,10.31,'11111222,11111222,11111222' 
TABS,ioos:station:wmo:42043:1,2019-12-02T11:00:00Z,28.9818,-94.9186,4.0,7.53,347.3,9.44,'11111222,11111222,11111222' 
TABS,ioos:station:wmo:42043:1,2019-12-02T12:00:00Z,28.9818,-94.9186,4.0,7.14,344.8,9.05,'11111222,11111222,11111222' 
TABS,ioos:station:wmo:42043:1,2019-12-02T13:00:00Z,28.9818,-94.9186,4.0,7.94,350.4,9.56,'11111222,11111222,11111222' 
TABS,ioos:station:wmo:42043:1,2019-12-02T14:00:00Z,28.9818,-94.9186,4.0,7.91,353.0,9.48,'11111222,11111222,11111222' 
TABS,ioos:station:wmo:42043:1,2019-12-02T15:00:00Z,28.9818,-94.9186,4.0,7.87,355.7,9.6,'11111222,11111222,11111222' 
TABS,ioos:station:wmo:42043:1,2019-12-02T16:00:00Z,28.9818,-94.9186,4.0,6.38,348.3,7.64,'11111222,11111222,11111222' 
TABS,ioos:station:wmo:42043:1,2019-12-02T17:00:00Z,28.9818,-94.9186,4.0,7.09,354.3,8.58,'11111222,11111222,11111222' 
TABS,ioos:station:wmo:42043:1,2019-12-02T18:00:00Z,28.9818,-94.9186,4.0,5.62,335.3,6.84,'11111222,11111222,11111222' 
TABS,ioos:station:wmo:42043:1,2019-12-02T19:00:00Z,28.9818,-94.9186,4.0,5.13,344.8,7.14,'11111222,11111222,11111222' 
TABS,ioos:station:wmo:42043:1,2019-12-02T20:00:00Z,28.9818,-94.9186,4.0,5.02,342.2,6.18,'11111222,11111222,11111222' 
TABS,ioos:station:wmo:42043:1,2019-12-02T21:00:00Z,28.9818,-94.9186,4.0,5.22,345.0,6.37,'11111222,11111222,11111222' 
TABS,ioos:station:wmo:42043:1,2019-12-02T22:00:00Z,28.9818,-94.9186,4.0,4.8,356.8,6.08,'11111222,11111222,11111222' 
TABS,ioos:station:wmo:42043:1,2019-12-02T23:00:00Z,28.9818,-94.9186,4.0,4.88,2.6,6.16,'11111222,11111222,11111222' 
TABS,ioos:station:wmo:42043:1,2019-12-02T23:30:00Z,28.9818,-94.9186,4.0,4.25,15.4,5.48,'11111222,11111222,11111222' 
TABS,ioos:station:wmo:42043:1,2019-12-03T05:00:00Z,28.9818,-94.9186,4.0,2.99,41.6,4.2,'11111222,11111222,11111222' 
TABS,ioos:station:wmo:42043:1,2019-12-03T06:00:00Z,28.9818,-94.9186,4.0,2.25,55.3,3.13,'11111222,11111222,11111222' 
TABS,ioos:station:wmo:42043:1,2019-12-03T07:00:00Z,28.9818,-94.9186,4.0,1.76,81.0,2.35,'11111222,11111222,11111222' 
TABS,ioos:station:wmo:42043:1,2019-12-03T08:00:00Z,28.9818,-94.9186,4.0,1.21,84.3,2.08,'11111222,11111222,11111222' 
TABS,ioos:station:wmo:42043:1,2019-12-03T09:00:00Z,28.9818,-94.9186,4.0,1.26,32.7,2.09,'11111222,11111222,11111222' 
TABS,ioos:station:wmo:42043:1,2019-12-03T10:00:00Z,28.9818,-94.9186,4.0,1.06,45.3,1.8,'11111222,11111222,11111222' 
TABS,ioos:station:wmo:42043:1,2019-12-03T11:00:00Z,28.9818,-94.9186,4.0,1.5,86.1,2.06,'11111222,11111222,11111222' 
TABS,ioos:station:wmo:42043:1,2019-12-03T12:00:00Z,28.9818,-94.9186,4.0,2.48,116.7,3.68,'11111222,11111222,11111222' 
TABS,ioos:station:wmo:42043:1,2019-12-03T13:00:00Z,28.9818,-94.9186,4.0,3.02,108.8,4.03,'11111222,11111222,11111222' 
TABS,ioos:station:wmo:42043:1,2019-12-03T14:00:00Z,28.9818,-94.9186,4.0,2.83,126.5,3.8,'11111222,11111222,11111222' 
TABS,ioos:station:wmo:42043:1,2019-12-03T15:00:00Z,28.9818,-94.9186,4.0,3.45,138.9,4.66,'11111222,11111222,11111222' 
TABS,ioos:station:wmo:42043:1,2019-12-03T16:00:00Z,28.9818,-94.9186,4.0,3.21,146.2,4.35,'11111222,11111222,11111222' 
TABS,ioos:station:wmo:42043:1,2019-12-03T17:00:00Z,28.9818,-94.9186,4.0,2.96,170.7,4.15,'11111222,11111222,11111222' 
TABS,ioos:station:wmo:42043:1,2019-12-03T18:00:00Z,28.9818,-94.9186,4.0,2.62,199.2,3.27,'11111222,11111222,11111222' 
TABS,ioos:station:wmo:42043:1,2019-12-03T19:00:00Z,28.9818,-94.9186,4.0,2.44,206.8,3.19,'11111222,11111222,11111222' 
TABS,ioos:station:wmo:42043:1,2019-12-03T20:00:00Z,28.9818,-94.9186,4.0,1.17,174.9,1.64,'11111222,11111222,11111222' 
TABS,ioos:station:wmo:42043:1,2019-12-03T21:00:00Z,28.9818,-94.9186,4.0,1.99,203.4,2.64,'11111222,11111222,11111222' 
TABS,ioos:station:wmo:42043:1,2019-12-03T22:00:00Z,28.9818,-94.9186,4.0,3.52,202.2,4.36,'11111222,11111222,11111222' 
TABS,ioos:station:wmo:42043:1,2019-12-03T23:00:00Z,28.9818,-94.9186,4.0,1.84,212.1,2.5,'11111222,11111222,11111222' 
TABS,ioos:station:wmo:42043:1,2019-12-03T23:30:00Z,28.9818,-94.9186,4.0,1.79,224.4,2.22,'11111222,11111222,11111222' 
TABS,ioos:station:wmo:42043:1,2019-12-04T05:00:00Z,28.9818,-94.9186,4.0,1.37,198.3,1.68,'11111222,11111222,11111222' 
TABS,ioos:station:wmo:42043:1,2019-12-04T06:00:00Z,28.9818,-94.9186,4.0,0.52,267.7,0.71,'11111222,11111222,11111222' 
TABS,ioos:station:wmo:42043:1,2019-12-04T07:00:00Z,28.9818,-94.9186,4.0,0.85,311.1,1.03,'11111222,11111222,11111222' 
TABS,ioos:station:wmo:42043:1,2019-12-04T08:00:00Z,28.9818,-94.9186,4.0,0.85,352.7,1.05,'11111222,11111222,11111222' 
TABS,ioos:station:wmo:42043:1,2019-12-04T09:00:00Z,28.9818,-94.9186,4.0,1.23,335.8,1.47,'11111222,11111222,11111222' 
TABS,ioos:station:wmo:42043:1,2019-12-04T10:00:00Z,28.9818,-94.9186,4.0,2.0,350.2,2.53,'11111222,11111222,11111222' 
TABS,ioos:station:wmo:42043:1,2019-12-04T11:00:00Z,28.9818,-94.9186,4.0,2.69,342.3,3.21,'11111222,11111222,11111222' 
TABS,ioos:station:wmo:42043:1,2019-12-04T12:00:00Z,28.9818,-94.9186,4.0,2.91,340.9,3.66,'11111222,11111222,11111222' 
TABS,ioos:station:wmo:42043:1,2019-12-04T13:00:00Z,28.9818,-94.9186,4.0,3.49,353.8,4.16,'11111222,11111222,11111222' 
TABS,ioos:station:wmo:42043:1,2019-12-04T14:00:00Z,28.9818,-94.9186,4.0,5.2,359.8,5.9,'11111222,11144222,11111222' 
TABS,ioos:station:wmo:42043:1,2019-12-04T15:00:00Z,28.9818,-94.9186,4.0,4.39,11.1,5.07,'11111222,11111222,11111222' 
TABS,ioos:station:wmo:42043:1,2019-12-04T16:00:00Z,28.9818,-94.9186,4.0,4.07,27.5,4.65,'11111222,11111222,11111222' 
TABS,ioos:station:wmo:42043:1,2019-12-04T17:00:00Z,28.9818,-94.9186,4.0,3.93,34.6,4.58,'11111222,11111222,11111222' 
TABS,ioos:station:wmo:42043:1,2019-12-04T18:00:00Z,28.9818,-94.9186,4.0,3.55,38.8,4.21,'11111222,11111222,11111222' 
TABS,ioos:station:wmo:42043:1,2019-12-04T19:30:00Z,28.9818,-94.9186,4.0,3.75,39.5,4.47,'11111222,11111222,11111222' 
TABS,ioos:station:wmo:42043:1,2019-12-04T20:00:00Z,28.9818,-94.9186,4.0,2.91,44.4,3.54,'11111222,11111222,11111222' 
 
DISCLAIMER: The Gulf of Mexico Coastal and Ocean Observing (GCOOS) Data Portal aggregates data from the regional data providers for the convenience of all data users. Data published on this website should not be used for navigation or certain other uses as we cannot guarantee data accuracy or availability. The data and delivery services are provided 'as is' without warranty of any kind. Data Source: Gulf of Mexico Coastal Ocean Observing System Data Portal (http://data.gcoos.org/) 
